H1 CPF 2 NER 2024 10 16 9 290 01 glonass137 H2 1705501 9137 42939 2024 10 16 0 0 0 2024 10 19 23 45 0 900 1 1 0 0 0 1 H9 10 0 60599 0.00000 0 -24394022.797 392141.885 -7469475.934 10 0 60599 900.00000 0 -25134167.655 433662.946 -4381671.614 10 0 60599 1800.00000 0 -25484297.530 540281.460 -1208829.442 10 0 60599 2700.00000 0 -25434171.519 658447.451 1987469.913 10 0 60599 3600.00000 0 -24986681.596 733953.889 5145213.793 10 0 60599 4500.00000 0 -24157722.514 714473.985 8203158.469 10 0 60599 5400.00000 0 -22975537.438 552017.835 11102013.389 10 0 60599 6300.00000 0 -21479567.173 205204.399 13785585.929 10 0 60599 7200.00000 0 -19718851.501 -358747.179 16201864.760 10 0 60599 8100.00000 0 -17750049.550 -1162391.090 18304021.359 10 0 60599 9000.00000 0 -15635161.734 -2216861.991 20051310.936 10 0 60599 9900.00000 0 -13439047.920 -3521166.422 21409856.070 10 0 60599 10800.00000 0 -11226844.609 -5061989.069 22353298.671 10 0 60599 11700.00000 0 -9061387.819 -6814023.043 22863308.333 10 0 60599 12600.00000 0 -7000747.999 -8740811.784 22929937.701 10 0 60599 13500.00000 0 -5095978.452 -10796068.961 22551818.259 10 0 60599 14400.00000 0 -3389169.978 -12925423.070 21736192.584 10 0 60599 15300.00000 0 -1911891.823 -15068515.648 20498782.079 10 0 60599 16200.00000 0 -684083.142 -17161367.252 18863491.952 10 0 60599 17100.00000 0 286559.358 -19138913.904 16861958.219 10 0 60599 18000.00000 0 1004672.400 -20937609.163 14532944.390 10 0 60599 18900.00000 0 1486792.230 -22497983.739 11921598.453 10 0 60599 19800.00000 0 1760414.249 -23767055.807 9078583.543 10 0 60599 20700.00000 0 1862585.997 -24700490.880 6059098.488 10 0 60599 21600.00000 0 1838093.045 -25264420.132 2921806.799 10 0 60599 22500.00000 0 1737314.869 -25436840.037 -272305.126 10 0 60599 23400.00000 0 1613842.011 -25208533.546 -3461118.064 10 0 60599 24300.00000 0 1521956.286 -24583473.138 -6582594.538 10 0 60599 25200.00000 0 1514081.802 -23578688.182 -9575993.400 10 0 60599 26100.00000 0 1638316.038 -22223601.510 -12383059.793 10 0 60599 27000.00000 0 1936146.835 -20558862.884 -14949166.424 10 0 60599 27900.00000 0 2440453.306 -18634728.323 -17224383.056 10 0 60599 28800.00000 0 3173876.497 -16509053.470 -19164452.798 10 0 60599 29700.00000 0 4147629.836 -14244985.495 -20731655.809 10 0 60599 30600.00000 0 5360800.603 -11908450.538 -21895543.564 10 0 60599 31500.00000 0 6800172.753 -9565542.103 -22633529.483 10 0 60599 32400.00000 0 8440579.305 -7279919.629 -22931324.825 10 0 60599 33300.00000 0 10245770.140 -5110325.693 -22783211.835 10 0 60599 34200.00000 0 12169759.304 -3108325.028 -22192149.308 10 0 60599 35100.00000 0 14158595.800 -1316358.893 -21169709.048 10 0 60599 36000.00000 0 16152484.068 233805.130 -19735844.845 10 0 60599 36900.00000 0 18088165.698 1522164.548 -17918498.794 10 0 60599 37800.00000 0 19901462.982 2541070.591 -15753052.860 10 0 60599 38700.00000 0 21529878.119 3295291.194 -13281636.499 10 0 60599 39600.00000 0 22915139.492 3801547.509 -10552303.953 10 0 60599 40500.00000 0 24005588.653 4087545.211 -7618097.337 10 0 60599 41400.00000 0 24758308.329 4190543.030 -4536013.860 10 0 60599 42300.00000 0 25140902.551 4155520.272 -1365897.464 10 0 60599 43200.00000 0 25132854.673 4033021.903 1830723.380 10 0 60599 44100.00000 0 24726406.729 3876773.123 4991829.017 10 0 60599 45000.00000 0 23926923.661 3741164.917 8056109.729 10 0 60599 45900.00000 0 22752727.524 3678717.268 10964151.347 10 0 60599 46800.00000 0 21234408.892 3737627.449 13659582.487 10 0 60599 47700.00000 0 19413644.420 3959506.989 16090161.464 10 0 60599 48600.00000 0 17341569.966 4377402.860 18208782.328 10 0 60599 49500.00000 0 15076776.910 5014186.346 19974381.206 10 0 60599 50400.00000 0 12683014.752 5881377.641 21352726.101 10 0 60599 51300.00000 0 10226694.924 6978456.035 22317075.684 10 0 60599 52200.00000 0 7774298.735 8292685.369 22848694.968 10 0 60599 53100.00000 0 5389796.175 9799463.143 22937218.407 10 0 60599 54000.00000 0 3132181.653 11463179.949 22580853.640 10 0 60599 54900.00000 0 1053227.956 13238554.860 21786421.849 10 0 60599 55800.00000 0 -804449.257 15072392.545 20569233.549 10 0 60599 56700.00000 0 -2408936.820 16905690.315 18952801.492 10 0 60599 57600.00000 0 -3740115.654 18676008.500 16968395.260 10 0 60599 58500.00000 0 -4790253.591 20320006.156 14654445.113 10 0 60599 59400.00000 0 -5564075.051 21776036.760 12055805.511 10 0 60599 60300.00000 0 -6078305.025 22986695.541 9222891.591 10 0 60599 61200.00000 0 -6360706.763 23901211.510 6210704.656 10 0 60599 62100.00000 0 -6448654.011 24477583.184 3077765.121 10 0 60599 63000.00000 0 -6387298.461 24684367.518 -115026.402 10 0 60599 63900.00000 0 -6227410.405 24502045.587 -3305577.415 10 0 60599 64800.00000 0 -6022984.771 23923906.550 -6431817.503 10 0 60599 65700.00000 0 -5828714.843 22956411.608 -9432913.526 10 0 60599 66600.00000 0 -5697441.805 21619021.776 -12250461.368 10 0 60599 67500.00000 0 -5677689.298 19943496.044 -14829630.098 10 0 60599 68400.00000 0 -5811388.644 17972688.933 -17120235.473 10 0 60599 69300.00000 0 -6131892.127 15758897.810 -19077721.212 10 0 60599 70200.00000 0 -6662359.409 13361829.226 -20664028.590 10 0 60599 71100.00000 0 -7414586.114 10846269.566 -21848337.342 10 0 60599 72000.00000 0 -8388324.754 8279557.508 -22607663.573 10 0 60599 72900.00000 0 -9571127.189 5728963.909 -22927303.412 10 0 60599 73800.00000 0 -10938715.738 3259088.243 -22801114.235 10 0 60599 74700.00000 0 -12455867.684 929379.776 -22231628.508 10 0 60599 75600.00000 0 -14077776.314 -1208113.898 -21229998.524 10 0 60599 76500.00000 0 -15751831.610 -3110678.122 -19815773.540 10 0 60599 77400.00000 0 -17419746.087 -4746462.960 -18016513.968 10 0 60599 78300.00000 0 -19019936.751 -6095553.101 -15867250.390 10 0 60599 79200.00000 0 -20490063.488 -7150532.877 -13409798.032 10 0 60599 80100.00000 0 -21769617.480 -7916524.595 -10691940.191 10 0 60599 81000.00000 0 -22802451.195 -8410700.415 -7766496.608 10 0 60599 81900.00000 0 -23539143.929 -8661290.097 -4690294.996 10 0 60599 82800.00000 0 -23939103.712 -8706128.012 -1523065.953 10 0 60599 83700.00000 0 -23972317.514 -8590802.094 1673717.118 10 0 60599 84600.00000 0 -23620676.455 -8366483.975 4838030.364 10 0 60599 85500.00000 0 -22878820.581 -8087532.818 7908500.785 10 0 60600 0.00000 0 -21754468.027 -7808974.640 10825592.922 10 0 60600 900.00000 0 -20268214.193 -7583963.774 13532759.571 10 0 60600 1800.00000 0 -18452810.869 -7461334.104 15977530.613 10 0 60600 2700.00000 0 -16351953.275 -7483342.852 18112524.591 10 0 60600 3600.00000 0 -14018626.632 -7683702.310 19896360.121 10 0 60600 4500.00000 0 -11513080.081 -8085982.180 21294451.846 10 0 60600 5400.00000 0 -8900511.541 -8702449.867 22279675.998 10 0 60600 6300.00000 0 -6248558.716 -9533397.777 22832893.420 10 0 60600 7200.00000 0 -3624699.349 -10566986.466 22943320.390 10 0 60600 8100.00000 0 -1093667.395 -11779611.142 22608740.382 10 0 60600 9000.00000 0 1285008.889 -13136777.375 21835552.535 10 0 60600 9900.00000 0 3459245.864 -14594450.710 20638655.552 10 0 60600 10800.00000 0 5386328.421 -16100825.125 19041168.525 10 0 60600 11700.00000 0 7034439.745 -17598437.713 17073993.143 10 0 60600 12600.00000 0 8383733.748 -19026542.134 14775224.673 10 0 60600 13500.00000 0 9426905.959 -20323642.247 12189422.027 10 0 60600 14400.00000 0 10169239.317 -21430080.094 9366750.055 10 0 60600 15300.00000 0 10628123.201 -22290569.454 6362009.971 10 0 60600 16200.00000 0 10832066.321 -22856568.258 3233576.310 10 0 60600 17100.00000 0 10819245.345 -23088389.041 42260.971 10 0 60600 18000.00000 0 10635651.008 -22956957.447 -3149873.281 10 0 60600 18900.00000 0 10332910.850 -22445143.624 -6280726.129 10 0 60600 19800.00000 0 9965881.485 -21548609.023 -9289375.431 10 0 60600 20700.00000 0 9590113.342 -20276131.823 -12117270.684 10 0 60600 21600.00000 0 9259296.327 -18649396.258 -14709380.049 10 0 60600 22500.00000 0 9022795.615 -16702253.855 -17015267.792 10 0 60600 23400.00000 0 8923382.914 -14479487.127 -18990080.489 10 0 60600 24300.00000 0 8995260.052 -12035127.214 -20595422.426 10 0 60600 25200.00000 0 9262459.136 -9430395.753 -21800103.100 10 0 60600 26100.00000 0 9737687.388 -6731356.956 -22580742.345 10 0 60600 27000.00000 0 10421665.734 -4006377.827 -22922221.727 10 0 60600 27900.00000 0 11302989.254 -1323502.225 -22817973.847 10 0 60600 28800.00000 0 12358515.486 1252152.149 -22270104.462 10 0 60600 29700.00000 0 13554264.270 3660866.034 -21289345.538 10 0 60600 30600.00000 0 14846791.322 5850558.052 -19894840.576 10 0 60600 31500.00000 0 16184977.772 7778699.100 -18113766.708 10 0 60600 32400.00000 0 17512160.442 9413823.260 -15980801.163 10 0 60600 33300.00000 0 18768513.342 10736573.701 -13537442.615 10 0 60600 34200.00000 0 19893580.246 11740241.586 -10831200.769 10 0 60600 35100.00000 0 20828851.902 12430777.234 -7914670.037 10 0 60600 36000.00000 0 21520279.510 12826274.862 -4844505.446 10 0 60600 36900.00000 0 21920618.782 12955954.320 -1680320.884 10 0 60600 37800.00000 0 21991506.022 12858684.204 1516468.733 10 0 60600 38700.00000 0 21705178.991 12581109.937 4683838.715 10 0 60600 39600.00000 0 21045770.207 12175466.811 7760355.984 10 0 60600 40500.00000 0 20010118.377 11697170.999 10686367.249 10 0 60600 41400.00000 0 18608063.784 11202290.658 13405151.070 10 0 60600 42300.00000 0 16862215.043 10745003.971 15864011.719 10 0 60600 43200.00000 0 14807196.632 10375151.262 18015294.147 10 0 60600 44100.00000 0 12488408.051 10135984.123 19817301.032 10 0 60600 45000.00000 0 9960345.630 10062206.059 21235094.853 10 0 60600 45900.00000 0 7284555.873 10178386.847 22241170.268 10 0 60600 46800.00000 0 4527304.323 10497817.197 22815984.443 10 0 60600 47700.00000 0 1757055.464 11021851.952 22948335.615 10 0 60600 48600.00000 0 -958133.080 11739769.859 22635582.805 10 0 60600 49500.00000 0 -3553195.334 12629156.524 21883702.404 10 0 60600 50400.00000 0 -5968514.736 13656795.498 20707180.150 10 0 60600 51300.00000 0 -8152153.969 14780031.274 19128739.883 10 0 60600 52200.00000 0 -10061765.129 15948548.270 17178913.388 10 0 60600 53100.00000 0 -11666101.391 17106492.253 14895458.577 10 0 60600 54000.00000 0 -12946067.669 18194846.015 12322636.168 10 0 60600 54900.00000 0 -13895266.663 19153960.027 9510357.865 10 0 60600 55800.00000 0 -14520017.714 19926131.783 6513221.833 10 0 60600 56700.00000 0 -14838847.889 20458124.946 3389453.722 10 0 60600 57600.00000 0 -14881476.922 20703521.428 199773.686 10 0 60600 58500.00000 0 -14687339.269 20624806.226 -2993788.197 10 0 60600 59400.00000 0 -14303706.126 20195095.693 -6129104.565 10 0 60600 60300.00000 0 -13783487.585 19399434.987 -9145166.995 10 0 60600 61200.00000 0 -13182808.790 18235608.753 -11983281.120 10 0 60600 62100.00000 0 -12558463.578 16714429.444 -14588216.473 10 0 60600 63000.00000 0 -11965354.326 14859490.087 -16909287.834 10 0 60600 63900.00000 0 -11454027.255 12706391.016 -18901346.321 10 0 60600 64800.00000 0 -11068408.176 10301472.342 -20525660.608 10 0 60600 65700.00000 0 -10843834.931 7700104.806 -21750670.996 10 0 60600 66600.00000 0 -10805469.987 4964610.164 -22552601.791 10 0 60600 67500.00000 0 -10967160.310 2161897.694 -22915920.402 10 0 60600 68400.00000 0 -11330792.525 -639084.907 -22833634.730 10 0 60600 69300.00000 0 -11886170.383 -3369980.381 -22307423.541 10 0 60600 70200.00000 0 -12611419.394 -5965621.584 -21347597.821 10 0 60600 71100.00000 0 -13473901.310 -8366494.511 -19972894.268 10 0 60600 72000.00000 0 -14431599.602 -10520962.995 -18210105.300 10 0 60600 72900.00000 0 -15434917.382 -12387163.574 -16093553.010 10 0 60600 73800.00000 0 -16428811.798 -13934492.887 -13664417.433 10 0 60600 74700.00000 0 -17355174.832 -15144626.957 -10969932.337 10 0 60600 75600.00000 0 -18155360.093 -16012031.425 -8062464.296 10 0 60600 76500.00000 0 -18772749.005 -16543943.057 -4998493.016 10 0 60600 77400.00000 0 -19155248.192 -16759824.975 -1837512.971 10 0 60600 78300.00000 0 -19257612.758 -16690320.111 1359122.158 10 0 60600 79200.00000 0 -19043497.538 -16375748.318 4529389.620 10 0 60600 80100.00000 0 -18487149.856 -15864211.629 7611799.028 10 0 60600 81000.00000 0 -17574672.469 -15209388.382 10546581.744 10 0 60600 81900.00000 0 -16304803.407 -14468109.784 13276845.274 10 0 60600 82800.00000 0 -14689179.661 -13697821.302 15749670.536 10 0 60600 83700.00000 0 -12752073.193 -12954035.808 17917131.198 10 0 60600 84600.00000 0 -10529609.615 -12287885.472 19737216.030 10 0 60600 85500.00000 0 -8068501.294 -11743874.966 21174637.056 10 0 60601 0.00000 0 -5424346.821 -11357930.031 22201508.612 10 0 60601 900.00000 0 -2659564.862 -11155822.774 22797885.324 10 0 60601 1800.00000 0 158949.581 -11152040.050 22952147.823 10 0 60601 2700.00000 0 2962355.411 -11349141.668 22661230.865 10 0 60601 3600.00000 0 5682475.206 -11737636.184 21930687.929 10 0 60601 4500.00000 0 8254378.990 -12296379.750 20774591.290 10 0 60601 5400.00000 0 10618835.793 -12993482.089 19215268.723 10 0 60601 6300.00000 0 12724532.139 -13787682.474 17282880.972 10 0 60601 7200.00000 0 14529965.921 -14630138.812 15014847.118 10 0 60601 8100.00000 0 16004937.247 -15466555.427 12455127.850 10 0 60601 9000.00000 0 17131574.284 -16239560.564 9653379.527 10 0 60601 9900.00000 0 17904851.371 -16891233.724 6663994.695 10 0 60601 10800.00000 0 18332577.751 -17365676.133 3545047.224 10 0 60601 11700.00000 0 18434857.504 -17611515.307 357162.416 10 0 60601 12600.00000 0 18243043.611 -17584237.019 -2837665.631 10 0 60601 13500.00000 0 17798230.620 -17248244.918 -5977285.839 10 0 60601 14400.00000 0 17149350.164 -16578559.485 -9000606.759 10 0 60601 15300.00000 0 16350950.459 -15562083.053 -11848793.283 10 0 60601 16200.00000 0 15460754.534 -14198376.114 -14466419.238 10 0 60601 17100.00000 0 14537101.226 -12499910.853 -16802552.568 10 0 60601 18000.00000 0 13636377.953 -10491790.042 -18811751.294 10 0 60601 18900.00000 0 12810554.433 -8210942.162 -20454950.505 10 0 60601 19800.00000 0 12104921.954 -5704825.760 -21700222.975 10 0 60601 20700.00000 0 11556133.888 -3029696.694 -22523398.739 10 0 60601 21600.00000 0 11190630.015 -248510.216 -22908531.901 10 0 60601 22500.00000 0 11023510.843 2571454.995 -22848206.077 10 0 60601 23400.00000 0 11057908.886 5361152.220 -22343673.035 10 0 60601 24300.00000 0 11284882.773 8052395.582 -21404822.353 10 0 60601 25200.00000 0 11683838.006 10580453.611 -20049983.104 10 0 60601 26100.00000 0 12223455.947 12886500.270 -18305561.782 10 0 60601 27000.00000 0 12863091.267 14919822.275 -16205523.745 10 0 60601 27900.00000 0 13554578.426 16639691.858 -13790728.413 10 0 60601 28800.00000 0 14244370.490 18016828.048 -11108131.283 10 0 60601 29700.00000 0 14875919.748 19034386.838 -8209868.393 10 0 60601 30600.00000 0 15392199.353 19688440.312 -5152241.125 10 0 60601 31500.00000 0 15738259.340 19987926.178 -1994621.296 10 0 60601 32400.00000 0 15863709.004 19954071.336 1201702.040 10 0 60601 33300.00000 0 15725020.732 19619315.112 4374711.507 10 0 60601 34200.00000 0 15287557.993 19025778.635 7462862.779 10 0 60601 35100.00000 0 14527241.873 18223345.770 10406275.077 10 0 60601 36000.00000 0 13431785.729 17267437.041 13147887.823 10 0 60601 36900.00000 0 12001445.710 16216570.610 15634561.237 10 0 60601 37800.00000 0 10249255.124 15129812.977 17818100.063 10 0 60601 38700.00000 0 8200732.079 14064226.360 19656181.164 10 0 60601 39600.00000 0 5893071.676 13072419.568 21113167.761 10 0 60601 40500.00000 0 3373855.315 12200304.600 22160795.306 10 0 60601 41400.00000 0 699329.442 11485152.445 22778716.406 10 0 60601 42300.00000 0 -2067676.131 10954029.065 22954894.793 10 0 60601 43200.00000 0 -4860105.496 10622676.654 22685840.989 10 0 60601 44100.00000 0 -7609213.261 10494886.877 21976685.104 10 0 60601 45000.00000 0 -10247176.727 10562392.397 20841084.992 10 0 60601 45900.00000 0 -12709676.521 10805281.540 19300970.895 10 0 60601 46800.00000 0 -14938339.616 11192919.157 17386130.571 10 0 60601 47700.00000 0 -16882943.879 11685335.638 15133641.898 10 0 60601 48600.00000 0 -18503292.808 12235026.196 12587162.825 10 0 60601 49500.00000 0 -19770682.554 12789085.194 9796091.412 10 0 60601 50400.00000 0 -20668899.887 13291585.761 6814611.517 10 0 60601 51300.00000 0 -21194709.185 13686104.191 3700642.114 10 0 60601 52200.00000 0 -21357808.012 13918282.093 514710.572 10 0 60601 53100.00000 0 -21180252.982 13938317.126 -2681227.967 10 0 60601 54000.00000 0 -20695380.311 13703275.873 -5825001.564 10 0 60601 54900.00000 0 -19946266.914 13179129.747 -8855438.454 10 0 60601 55800.00000 0 -18983797.487 12342426.340 -11713565.316 10 0 60601 56700.00000 0 -17864419.864 11181524.133 -14343762.562 10 0 60601 57600.00000 0 -16647684.141 9697336.936 -16694853.342 10 0 60601 58500.00000 0 -15393670.207 7903555.370 -18721104.331 10 0 60601 59400.00000 0 -14160412.885 5826334.908 -20383118.455 10 0 60601 60300.00000 0 -13001433.717 3503462.568 -21648602.054 10 0 60601 61200.00000 0 -11963483.600 983036.383 -22492991.643 10 0 60601 62100.00000 0 -11084591.284 -1678287.725 -22899928.441 10 0 60601 63000.00000 0 -10392499.473 -4417409.067 -22861571.873 10 0 60601 63900.00000 0 -9903553.720 -7167167.569 -22378746.482 10 0 60601 64800.00000 0 -9622090.023 -9858902.550 -21460919.883 10 0 60601 65700.00000 0 -9540345.893 -12425078.849 -20126012.657 10 0 60601 66600.00000 0 -9638897.644 -14801871.547 -18400044.195 10 0 60601 67500.00000 0 -9887604.415 -16931602.363 -16316621.662 10 0 60601 68400.00000 0 -10247018.251 -18764927.050 -13916282.156 10 0 60601 69300.00000 0 -10670199.888 -20262683.511 -11245700.988 10 0 60601 70200.00000 0 -11104862.952 -21397324.591 -8356781.594 10 0 60601 71100.00000 0 -11495755.464 -22153876.859 -5305644.849 10 0 60601 72000.00000 0 -11787177.595 -22530386.518 -2151537.634 10 0 60601 72900.00000 0 -11925529.001 -22537835.079 1044317.985 10 0 60601 73800.00000 0 -11861777.841 -22199529.597 4219912.442 10 0 60601 74700.00000 0 -11553747.038 -21549994.247 7313649.983 10 0 60601 75600.00000 0 -10968121.080 -20633410.800 10265540.261 10 0 60601 76500.00000 0 -10082088.525 -19501674.257 13018357.212 10 0 60601 77400.00000 0 -8884550.715 -18212145.822 15518742.947 10 0 60601 78300.00000 0 -7376845.396 -16825197.723 17718235.764 10 0 60601 79200.00000 0 -5572954.178 -15401652.785 19574202.946 10 0 60601 80100.00000 0 -3499184.213 -14000225.731 21050661.000 10 0 60601 81000.00000 0 -1193336.240 -12675072.812 22118968.217 10 0 60601 81900.00000 0 1296607.733 -11473551.626 22758376.842 10 0 60601 82800.00000 0 3914224.003 -10434284.135 22956434.709 10 0 60601 83700.00000 0 6596743.348 -9585603.184 22709228.855 10 0 60601 84600.00000 0 9277418.414 -8944446.967 22021466.414 10 0 60601 85500.00000 0 11888065.598 -8515747.338 20906390.857 10 0 60602 0.00000 0 14361677.072 -8292337.464 19385534.729 10 0 60602 900.00000 0 16634996.890 -8255382.668 17488311.853 10 0 60602 1800.00000 0 18650951.579 -8375316.853 15251457.968 10 0 60602 2700.00000 0 20360838.924 -8613245.082 12718326.837 10 0 60602 3600.00000 0 21726180.490 -8922753.859 9938056.371 10 0 60602 4500.00000 0 22720161.666 -9252052.797 6964619.454 10 0 60602 5400.00000 0 23328598.680 -9546357.246 3855777.506 10 0 60602 6300.00000 0 23550391.531 -9750410.821 671956.968 10 0 60602 7200.00000 0 23397443.472 -9811040.356 -2524929.212 10 0 60602 8100.00000 0 22894050.479 -9679634.249 -5672691.595 10 0 60602 9000.00000 0 22075786.311 -9314437.991 -8710081.464 10 0 60602 9900.00000 0 20987930.502 -8682568.311 -11577990.538 10 0 60602 10800.00000 0 19683505.994 -7761659.316 -14220608.902 10 0 60602 11700.00000 0 18221009.684 -6541069.460 -16586517.752 10 0 60602 12600.00000 0 16661932.211 -5022597.030 -18629694.989 10 0 60602 13500.00000 0 15068172.067 -3220672.704 -20310413.669 10 0 60602 14400.00000 0 13499453.326 -1162019.911 -21596015.688 10 0 60602 15300.00000 0 12010855.883 1115203.664 -22461545.735 10 0 60602 16200.00000 0 10650561.950 3562748.302 -22890233.495 10 0 60602 17100.00000 0 9457913.093 6124042.711 -22873815.207 10 0 60602 18000.00000 0 8461858.760 8736319.336 -22412688.812 10 0 60602 18900.00000 0 7679860.475 11333006.367 -21515900.207 10 0 60602 19800.00000 0 7117296.541 13846287.220 -20200961.302 10 0 60602 20700.00000 0 6767390.983 16209721.305 -18493503.792 10 0 60602 21600.00000 0 6611668.357 18360817.438 -16426775.621 10 0 60602 22500.00000 0 6620913.945 20243453.223 -14040990.088 10 0 60602 23400.00000 0 6756597.668 21810040.181 -11382540.394 10 0 60602 24300.00000 0 6972700.572 23023345.027 -8503095.008 10 0 60602 25200.00000 0 7217865.869 23857891.897 -5458591.522 10 0 60602 26100.00000 0 7437782.941 24300887.833 -2308148.756 10 0 60602 27000.00000 0 7577702.988 24352633.821 887081.603 10 0 60602 27900.00000 0 7584979.565 24026405.197 4065101.356 10 0 60602 28800.00000 0 7411526.330 23347807.474 7164266.926 10 0 60602 29700.00000 0 7016087.958 22353635.487 10124481.951 10 0 60602 30600.00000 0 6366228.116 21090284.433 12888358.278 10 0 60602 31500.00000 0 5439950.430 19611779.977 15402323.080 10 0 60602 32400.00000 0 4226883.796 17977510.184 17617651.100 10 0 60602 33300.00000 0 2728981.613 16249754.224 19491402.614 10 0 60602 34200.00000 0 960704.819 14491110.944 20987249.633 10 0 60602 35100.00000 0 -1051320.025 12761934.258 22076175.115 10 0 60602 36000.00000 0 -3269154.656 11117881.735 22737032.352 10 0 60602 36900.00000 0 -5644880.929 9607677.912 22956954.216 10 0 60602 37800.00000 0 -8122356.751 8271184.836 22731604.701 10 0 60602 38700.00000 0 -10639324.837 7137859.548 22065267.851 10 0 60602 39600.00000 0 -13129788.258 6225662.299 20970772.071 10 0 60602 40500.00000 0 -15526555.545 5540460.629 19469250.644 10 0 60602 41400.00000 0 -17763850.815 5075953.940 17589742.184 10 0 60602 42300.00000 0 -19779881.161 4814121.630 15368637.735 10 0 60602 43200.00000 0 -21519254.946 4726175.953 12848984.125 10 0 60602 44100.00000 0 -22935150.254 4773979.596 10079656.048 10 0 60602 45000.00000 0 -23991142.772 4911868.236 7114412.156 10 0 60602 45900.00000 0 -24662616.228 5088801.056 4010852.969 10 0 60602 46800.00000 0 -24937695.652 5250747.959 829300.654 10 0 60602 47700.00000 0 -24817663.826 5343211.932 -2368377.278 10 0 60602 48600.00000 0 -24316842.790 5313778.799 -5519976.990 10 0 60602 49500.00000 0 -23461945.175 5114585.253 -8564175.753 10 0 60602 50400.00000 0 -22290922.702 4704599.367 -11441733.062 10 0 60602 51300.00000 0 -20851360.381 4051615.552 -14096651.169 10 0 60602 52200.00000 0 -19198484.411 3133878.117 -16477271.561 10 0 60602 53100.00000 0 -17392868.138 1941263.432 -18537285.276 10 0 60602 54000.00000 0 -15497933.009 475969.461 -20236637.050 10 0 60602 54900.00000 0 -13577350.012 -1247317.564 -21542305.485 10 0 60602 55800.00000 0 -11692450.978 -3201787.339 -22428944.158 10 0 60602 56700.00000 0 -9899758.352 -5349386.173 -22879371.533 10 0 60602 57600.00000 0 -8248736.673 -7642177.986 -22884900.572 10 0 60602 58500.00000 0 -6779859.385 -10024129.270 -22445502.159 10 0 60602 59400.00000 0 -5523071.013 -12433243.973 -21569799.679 10 0 60602 60300.00000 0 -4496707.940 -14803959.636 -20274895.298 10 0 60602 61200.00000 0 -3706921.579 -17069705.173 -18586031.676 10 0 60602 62100.00000 0 -3147626.612 -19165514.057 -16536095.985 10 0 60602 63000.00000 0 -2800974.840 -21030584.267 -14164975.995 10 0 60602 63900.00000 0 -2638333.172 -22610678.605 -11518780.936 10 0 60602 64800.00000 0 -2621723.105 -23860265.673 -8648942.343 10 0 60602 65700.00000 0 -2705659.729 -24744312.586 -5611212.497 10 0 60602 66600.00000 0 -2839311.570 -25239655.107 -2464580.068 10 0 60602 67500.00000 0 -2968889.141 -25335888.578 729875.768 10 0 60602 68400.00000 0 -3040160.649 -25035743.091 3910170.362 10 0 60602 69300.00000 0 -3000988.002 -24354927.960 7014614.564 10 0 60602 70200.00000 0 -2803775.643 -23321452.708 9983008.294 10 0 60602 71100.00000 0 -2407728.536 -21974453.650 12757803.650 10 0 60602 72000.00000 0 -1780823.784 -20362575.630 15285215.211 10 0 60602 72900.00000 0 -901412.524 -18541976.861 17516256.460 10 0 60602 73800.00000 0 240615.756 -16574040.266 19407682.838 10 0 60602 74700.00000 0 1643155.983 -14522886.603 20922823.858 10 0 60602 75600.00000 0 3291726.650 -12452792.641 22032288.900 10 0 60602 76500.00000 0 5159833.213 -10425621.267 22714533.772 10 0 60602 77400.00000 0 7209841.953 -8498369.711 22956277.557 10 0 60602 78300.00000 0 9394329.412 -6720937.096 22752762.035 10 0 60602 79200.00000 0 11657852.887 -5134203.281 22107848.684 10 0 60602 80100.00000 0 13939069.934 -3768498.259 21033951.041 10 0 60602 81000.00000 0 16173120.216 -2642525.184 19551803.166 10 0 60602 81900.00000 0 18294171.900 -1762781.426 17690067.761 10 0 60602 82800.00000 0 20238027.502 -1123501.521 15484790.539 10 0 60602 83700.00000 0 21944681.198 -707124.097 12978710.303 10 0 60602 84600.00000 0 23360720.991 -485263.038 10220437.074 10 0 60602 85500.00000 0 24441475.247 -420141.832 7263513.443 99